"SCET";"TARGET";"ELECTRON_DENSITY";"ERROR_FLAG";"ELECTRON_DENSITY_ERROR";"FREQ_FCE";"MEASURED_VALUE";"MEASURED_ITEM";"FREQ_PLASMA";"FREQ_UPPER_HYBRID";"FREQ_R_EQUALS_ZERO";"FREQ_L_EQUALS_ZERO";"ORBIT_NUMBER";"SATURN_RADIUS";"SATURN_IAU_LONGITUDE";"SATURN_SLS4_S_LONGITUDE";"SATURN_SLS4_N_LONGITUDE";"SATURN_SLS5_S_LONGITUDE";"SATURN_SLS5_N_LONGITUDE";"SATURN_LOCAL_TIME";"SATURN_KRONOGRAPHIC_LATITUDE";"SATURN_MAGNETIC_LATITUDE";"SATURN_L";"SATURN_L_OFFSET";"SATURN_SOLAR_EQUATORIAL_X";"SATURN_SOLAR_EQUATORIAL_Y";"SATURN_SOLAR_EQUATORIAL_Z";"SATURN_ALTITUDE";"ENCELADUS_ENCOUNTER_NUMBER";"ENCELADUS_RADIUS";"ENCELADUS_COROTATIONAL_X";"ENCELADUS_COROTATIONAL_Y";"ENCELADUS_COROTATIONAL_Z";"ENCELADUS_TRUE_ANOMALY";"ENCELADUS_PERIAPSIS_TIME";"JUPITER_RADIUS";"JUPITER_SYSTEMIII_LONGITUDE";"JUPITER_MAGNETIC_LATITUDE";"JUPITER_MAGNETIC_LOCAL_TIME";"JUPITER_L";"IO_PHASE";"EARTH_RADIUS";"EARTH_MAGNETIC_LATITUDE";"EARTH_LOCAL_TIME";"EARTH_L"
"[UTC]";"[0=Saturn, 1=Enceladus, 2=Jupiter, 3=Earth]";"[cm-3]";"[0=automated, 1=manual]";"[normalized density error]";"[Hz]";"[Hz]";"[0=upper hybrid frequency, 1=plasma frequency cutoff]";"[Hz]";"[Hz]";"[Hz]";"[Hz}";"[0, A, B, C, 3, 4, ... , 292, 293]";"[Rs where 1Rs=60268km]";"[degrees]";"[degrees]";"[degrees]";"[degrees]";"[degrees]";"[hours]";"[degrees]";"[degrees where offset=2293km north]";"[Rs where 1Rs=60268km]";"[Rs where 1Rs=60268km and offset=2293km north]";"[Rs where 1Rs=60268km]";"[Rs where 1Rs=60268km]";"[Rs where 1Rs=60268km]";"[km where ellipsoid a,b=60268km and c=54364km]";"[E0, E1, E2, ... , E21, E22]";"[Renc where 1Renc=252.1km]";"[Renc where 1Renc=252.1km]";"[Renc where 1Renc=252.1km]";"[Renc where 1Renc=252.1km]";"[degrees]";"[UTC]";"[Rj where 1Rj=71492km]";"[degrees]";"[degrees using JRM09 model]";"[hours using JRM09 model]";"[Rj where 1Rj=71492km]";"[degrees]";"[Re where 1Re=6378.1366km]";"[degrees]";"[hours]";"[Re where 1Re=6378.1366km]"
2007-08-30T00:00:02.059Z;0;9.6200e+00;0;     0.183;   743.400;  27862.270; 0;  27852.350;  27862.270;  28226.531;  27483.131; 49;   8.208;  90.316;  71.190;  55.890;  61.061;  65.562;   8.205;  -0.253;  -0.518;   8.208;   8.200;   4.479;  -6.878;  -0.036;;;;;;;;;;;;;;;;;;
2007-08-30T00:00:18.059Z;0;1.0700e+01;0;     0.148;   743.400;  29380.539; 0;  29371.133;  29380.539;  29745.184;  29001.785; 49;   8.210;  90.448;  71.319;  56.023;  61.192;  65.696;   8.206;  -0.253;  -0.518;   8.210;   8.201;   4.482;  -6.878;  -0.036;;;;;;;;;;;;;;;;;;
2007-08-30T00:00:34.059Z;0;1.0490e+01;0;     0.184;   743.400;  29095.293; 0;  29085.795;  29095.293;  29459.869;  28716.469; 49;   8.211;  90.581;  71.449;  56.157;  61.322;  65.830;   8.207;  -0.253;  -0.518;   8.211;   8.203;   4.485;  -6.878;  -0.036;;;;;;;;;;;;;;;;;;
2007-08-30T00:00:50.059Z;0;9.9990e+00;0;     0.162;   743.400;  28405.500; 0;  28395.771;  28405.500;  28769.902;  28026.504; 49;   8.213;  90.713;  71.579;  56.290;  61.451;  65.964;   8.208;  -0.253;  -0.518;   8.213;   8.205;   4.488;  -6.878;  -0.036;;;;;;;;;;;;;;;;;;
2007-08-30T00:01:06.059Z;0;9.1600e+00;0;     0.172;   761.936;  27188.898; 0;  27178.221;  27188.898;  27561.857;  26799.922; 49;   8.215;  90.845;  71.709;  56.424;  61.581;  66.099;   8.209;  -0.253;  -0.518;   8.215;   8.207;   4.491;  -6.878;  -0.036;;;;;;;;;;;;;;;;;;
2007-08-30T00:01:22.059Z;0;9.0430e+00;0;     0.185;   761.936;  27015.135; 0;  27004.389;  27015.135;  27388.043;  26626.107; 49;   8.217;  90.978;  71.839;  56.557;  61.711;  66.233;   8.211;  -0.253;  -0.518;   8.217;   8.208;   4.494;  -6.878;  -0.036;;;;;;;;;;;;;;;;;;
2007-08-30T00:01:38.059Z;0;1.0710e+01;0;     0.175;   761.936;  29401.451; 0;  29391.576;  29401.451;  29775.014;  29013.078; 49;   8.218;  91.110;  71.969;  56.691;  61.841;  66.367;   8.212;  -0.253;  -0.518;   8.218;   8.210;   4.497;  -6.878;  -0.036;;;;;;;;;;;;;;;;;;
2007-08-30T00:01:54.059Z;0;1.0040e+01;0;     0.168;   761.936;  28458.912; 0;  28448.711;  28458.912;  28832.229;  28070.293; 49;   8.220;  91.242;  72.099;  56.824;  61.971;  66.501;   8.213;  -0.253;  -0.518;   8.220;   8.212;   4.500;  -6.878;  -0.036;;;;;;;;;;;;;;;;;;
2007-08-30T00:02:42.058Z;0;1.0620e+01;0;     0.160;   748.804;  29271.029; 0;  29261.449;  29271.029;  29638.246;  28889.443; 49;   8.225;  91.639;  72.489;  57.225;  62.359;  66.904;   8.217;  -0.252;  -0.517;   8.225;   8.217;   4.510;  -6.879;  -0.036;;;;;;;;;;;;;;;;;;
2007-08-30T00:02:58.058Z;0;1.0710e+01;0;     0.184;   748.804;  29402.514; 0;  29392.977;  29402.514;  29769.764;  29020.959; 49;   8.227;  91.772;  72.619;  57.358;  62.489;  67.038;   8.218;  -0.252;  -0.517;   8.227;   8.219;   4.513;  -6.879;  -0.036;;;;;;;;;;;;;;;;;;
2007-08-30T00:02:58.058Z;0;1.0710e+01;0;     0.184;   748.804;  29402.514; 0;  29392.977;  29402.514;  29769.764;  29020.959; 49;   8.227;  91.772;  72.619;  57.358;  62.489;  67.038;   8.218;  -0.252;  -0.517;   8.227;   8.219;   4.513;  -6.879;  -0.036;;;;;;;;;;;;;;;;;;
2007-08-30T00:03:14.058Z;0;9.9070e+00;0;     0.164;   753.480;  28274.852; 0;  28264.811;  28274.852;  28644.061;  27890.580; 49;   8.229;  91.904;  72.749;  57.492;  62.618;  67.172;   8.219;  -0.252;  -0.517;   8.229;   8.221;   4.516;  -6.879;  -0.036;;;;;;;;;;;;;;;;;;
2007-08-30T00:03:14.058Z;0;9.9070e+00;0;     0.164;   753.480;  28274.852; 0;  28264.811;  28274.852;  28644.061;  27890.580; 49;   8.229;  91.904;  72.749;  57.492;  62.618;  67.172;   8.219;  -0.252;  -0.517;   8.229;   8.221;   4.516;  -6.879;  -0.036;;;;;;;;;;;;;;;;;;
2007-08-30T00:03:30.058Z;0;1.0080e+01;0;     0.160;   753.480;  28519.408; 0;  28509.453;  28519.408;  28888.682;  28135.203; 49;   8.231;  92.036;  72.879;  57.626;  62.748;  67.306;   8.220;  -0.252;  -0.517;   8.231;   8.222;   4.519;  -6.879;  -0.036;;;;;;;;;;;;;;;;;;
2007-08-30T00:03:30.058Z;0;1.0080e+01;0;     0.160;   753.480;  28519.408; 0;  28509.453;  28519.408;  28888.682;  28135.203; 49;   8.231;  92.036;  72.879;  57.626;  62.748;  67.306;   8.220;  -0.252;  -0.517;   8.231;   8.222;   4.519;  -6.879;  -0.036;;;;;;;;;;;;;;;;;;
2007-08-30T00:03:46.058Z;0;9.9670e+00;0;     0.147;   753.480;  28359.932; 0;  28349.920;  28359.932;  28729.164;  27975.684; 49;   8.232;  92.169;  73.009;  57.759;  62.877;  67.440;   8.221;  -0.252;  -0.517;   8.232;   8.224;   4.522;  -6.879;  -0.036;;;;;;;;;;;;;;;;;;
2007-08-30T00:03:46.058Z;0;9.9670e+00;0;     0.147;   753.480;  28359.932; 0;  28349.920;  28359.932;  28729.164;  27975.684; 49;   8.232;  92.169;  73.009;  57.759;  62.877;  67.440;   8.221;  -0.252;  -0.517;   8.232;   8.224;   4.522;  -6.879;  -0.036;;;;;;;;;;;;;;;;;;
2007-08-30T00:04:18.058Z;0;9.4570e+00;0;     0.209;   752.864;  27625.949; 0;  27615.689;  27625.949;  27994.686;  27241.822; 49;   8.236;  92.434;  73.269;  58.026;  63.135;  67.709;   8.224;  -0.252;  -0.517;   8.236;   8.228;   4.528;  -6.879;  -0.036;;;;;;;;;;;;;;;;;;
2007-08-30T00:04:18.058Z;0;9.4570e+00;0;     0.209;   752.864;  27625.949; 0;  27615.689;  27625.949;  27994.686;  27241.822; 49;   8.236;  92.434;  73.269;  58.026;  63.135;  67.709;   8.224;  -0.252;  -0.517;   8.236;   8.228;   4.528;  -6.879;  -0.036;;;;;;;;;;;;;;;;;;
2007-08-30T00:04:50.433Z;0;1.0110e+01;0;     0.167;   752.864;  28565.047; 0;  28555.123;  28565.047;  28934.037;  28181.174; 49;   8.239;  92.702;  73.532;  58.297;  63.396;  67.981;   8.226;  -0.252;  -0.516;   8.240;   8.231;   4.534;  -6.879;  -0.036;;;;;;;;;;;;;;;;;;
2007-08-30T00:05:06.058Z;0;9.8000e+00;0;     0.164;   745.416;  28122.094; 0;  28112.213;  28122.094;  28487.391;  27741.975; 49;   8.241;  92.831;  73.659;  58.427;  63.522;  68.112;   8.227;  -0.252;  -0.516;   8.241;   8.233;   4.537;  -6.879;  -0.036;;;;;;;;;;;;;;;;;;
2007-08-30T00:05:22.057Z;0;1.0300e+01;0;     0.177;   745.416;  28824.799; 0;  28815.158;  28824.799;  29190.277;  28444.861; 49;   8.243;  92.963;  73.789;  58.561;  63.651;  68.246;   8.228;  -0.252;  -0.516;   8.243;   8.235;   4.541;  -6.879;  -0.036;;;;;;;;;;;;;;;;;;
2007-08-30T00:05:38.057Z;0;9.8160e+00;0;     0.174;   745.416;  28145.332; 0;  28135.459;  28145.332;  28510.637;  27765.221; 49;   8.245;  93.096;  73.919;  58.694;  63.780;  68.380;   8.230;  -0.252;  -0.516;   8.245;   8.236;   4.544;  -6.879;  -0.036;;;;;;;;;;;;;;;;;;
2007-08-30T00:05:54.057Z;0;9.9780e+00;0;     0.158;   745.416;  28376.027; 0;  28366.234;  28376.027;  28741.391;  27995.975; 49;   8.246;  93.228;  74.049;  58.828;  63.909;  68.515;   8.231;  -0.252;  -0.516;   8.246;   8.238;   4.547;  -6.879;  -0.036;;;;;;;;;;;;;;;;;;
2007-08-30T00:06:10.057Z;0;9.7230e+00;0;     0.158;   745.696;  28011.088; 0;  28001.160;  28011.088;  28376.490;  27630.795; 49;   8.248;  93.361;  74.179;  58.962;  64.037;  68.649;   8.232;  -0.252;  -0.516;   8.248;   8.240;   4.550;  -6.879;  -0.036;;;;;;;;;;;;;;;;;;
2007-08-30T00:06:26.057Z;0;1.0010e+01;0;     0.170;   745.696;  28424.605; 0;  28414.822;  28424.605;  28790.117;  28044.420; 49;   8.250;  93.493;  74.309;  59.095;  64.166;  68.783;   8.233;  -0.252;  -0.516;   8.250;   8.242;   4.553;  -6.879;  -0.036;;;;;;;;;;;;;;;;;;
2007-08-30T00:06:42.057Z;0;9.1520e+00;0;     0.171;   745.696;  27176.541; 0;  27166.309;  27176.541;  27541.715;  26796.020; 49;   8.252;  93.626;  74.439;  59.229;  64.295;  68.918;   8.234;  -0.252;  -0.516;   8.252;   8.243;   4.556;  -6.879;  -0.036;;;;;;;;;;;;;;;;;;
2007-08-30T00:07:14.057Z;0;8.9810e+00;0;     0.203;   756.000;  26922.654; 0;  26912.037;  26922.654;  27292.691;  26536.691; 49;   8.255;  93.890;  74.699;  59.496;  64.552;  69.186;   8.237;  -0.251;  -0.515;   8.255;   8.247;   4.562;  -6.880;  -0.036;;;;;;;;;;;;;;;;;;
2007-08-30T00:07:30.057Z;0;9.7390e+00;0;     0.209;   756.000;  28034.463; 0;  28024.268;  28034.463;  28404.816;  27648.816; 49;   8.257;  94.023;  74.829;  59.630;  64.680;  69.321;   8.238;  -0.251;  -0.515;   8.257;   8.249;   4.565;  -6.880;  -0.036;;;;;;;;;;;;;;;;;;
2007-08-30T00:07:46.057Z;0;9.1680e+00;0;     0.187;   756.000;  27200.699; 0;  27190.191;  27200.699;  27570.818;  26814.818; 49;   8.259;  94.155;  74.959;  59.763;  64.808;  69.455;   8.239;  -0.251;  -0.515;   8.259;   8.250;   4.568;  -6.880;  -0.036;;;;;;;;;;;;;;;;;;
2007-08-30T00:08:02.056Z;0;9.9780e+00;0;     0.174;   738.220;  28375.078; 0;  28365.473;  28375.078;  28736.984;  27998.766; 49;   8.260;  94.288;  75.090;  59.897;  64.936;  69.589;   8.240;  -0.251;  -0.515;   8.261;   8.252;   4.571;  -6.880;  -0.036;;;;;;;;;;;;;;;;;;
2007-08-30T00:08:18.056Z;0;1.0910e+01;0;     0.174;   738.220;  29668.668; 0;  29659.482;  29668.668;  30030.889;  29292.670; 49;   8.262;  94.420;  75.220;  60.031;  65.065;  69.724;   8.241;  -0.251;  -0.515;   8.262;   8.254;   4.575;  -6.880;  -0.036;;;;;;;;;;;;;;;;;;
2007-08-30T00:08:34.056Z;0;9.7810e+00;0;     0.177;   738.220;  28094.998; 0;  28085.297;  28094.998;  28456.834;  27718.613; 49;   8.264;  94.553;  75.350;  60.165;  65.193;  69.858;   8.242;  -0.251;  -0.515;   8.264;   8.256;   4.578;  -6.880;  -0.036;;;;;;;;;;;;;;;;;;
2007-08-30T00:08:50.056Z;0;9.9550e+00;0;     0.175;   738.220;  28342.246; 0;  28332.631;  28342.246;  28704.145;  27965.924; 49;   8.266;  94.686;  75.480;  60.298;  65.321;  69.992;   8.244;  -0.251;  -0.515;   8.266;   8.257;   4.581;  -6.880;  -0.036;;;;;;;;;;;;;;;;;;
2007-08-30T00:09:06.056Z;0;1.0040e+01;0;     0.168;   757.792;  28469.633; 0;  28459.545;  28469.633;  28840.963;  28083.172; 49;   8.267;  94.818;  75.610;  60.432;  65.449;  70.127;   8.245;  -0.251;  -0.515;   8.268;   8.259;   4.584;  -6.880;  -0.036;;;;;;;;;;;;;;;;;;
2007-08-30T00:09:22.056Z;0;1.0640e+01;0;     0.161;   757.792;  29305.799; 0;  29296.000;  29305.799;  29677.346;  28919.555; 49;   8.269;  94.951;  75.740;  60.566;  65.577;  70.261;   8.246;  -0.251;  -0.515;   8.269;   8.261;   4.587;  -6.880;  -0.036;;;;;;;;;;;;;;;;;;
2007-08-30T00:09:38.056Z;0;9.8590e+00;0;     0.166;   757.792;  28207.002; 0;  28196.820;  28207.002;  28578.262;  27820.471; 49;   8.271;  95.083;  75.870;  60.699;  65.705;  70.396;   8.247;  -0.251;  -0.514;   8.271;   8.263;   4.590;  -6.880;  -0.036;;;;;;;;;;;;;;;;;;
2007-08-30T00:09:54.056Z;0;1.0020e+01;0;     0.171;   757.792;  28439.432; 0;  28429.334;  28439.432;  28810.754;  28052.963; 49;   8.273;  95.216;  76.001;  60.833;  65.832;  70.530;   8.248;  -0.251;  -0.514;   8.273;   8.264;   4.593;  -6.880;  -0.036;;;;;;;;;;;;;;;;;;
2007-08-30T00:10:10.056Z;0;1.0680e+01;0;     0.155;   724.752;  29353.803; 0;  29344.854;  29353.803;  29709.467;  28984.715; 49;   8.274;  95.348;  76.131;  60.967;  65.961;  70.664;   8.249;  -0.251;  -0.514;   8.275;   8.266;   4.596;  -6.880;  -0.036;;;;;;;;;;;;;;;;;;
2007-08-30T00:10:26.055Z;0;9.1890e+00;0;     0.188;   724.752;  27230.848; 0;  27221.201;  27230.848;  27585.988;  26861.236; 49;   8.276;  95.481;  76.261;  61.101;  66.090;  70.797;   8.251;  -0.251;  -0.514;   8.276;   8.268;   4.599;  -6.880;  -0.036;;;;;;;;;;;;;;;;;;
2007-08-30T00:10:42.055Z;0;8.8630e+00;0;     0.196;   724.752;  26744.363; 0;  26734.541;  26744.363;  27099.373;  26374.621; 49;   8.278;  95.613;  76.391;  61.234;  66.219;  70.929;   8.252;  -0.251;  -0.514;   8.278;   8.270;   4.602;  -6.880;  -0.036;;;;;;;;;;;;;;;;;;
2007-08-30T00:10:58.055Z;0;9.0130e+00;0;     0.184;   724.752;  26968.543; 0;  26958.803;  26968.543;  27323.613;  26598.861; 49;   8.280;  95.746;  76.521;  61.368;  66.348;  71.062;   8.253;  -0.251;  -0.514;   8.280;   8.271;   4.605;  -6.880;  -0.036;;;;;;;;;;;;;;;;;;
2007-08-30T00:11:14.055Z;0;8.8530e+00;0;     0.184;   729.848;  26728.488; 0;  26718.521;  26728.488;  27085.938;  26356.090; 49;   8.281;  95.879;  76.651;  61.502;  66.477;  71.195;   8.254;  -0.251;  -0.514;   8.282;   8.273;   4.609;  -6.880;  -0.036;;;;;;;;;;;;;;;;;;
2007-08-30T00:11:30.055Z;0;9.9860e+00;0;     0.152;   729.848;  28386.854; 0;  28377.469;  28386.854;  28744.740;  28014.893; 49;   8.283;  96.011;  76.782;  61.636;  66.607;  71.328;   8.255;  -0.251;  -0.514;   8.283;   8.275;   4.612;  -6.880;  -0.036;;;;;;;;;;;;;;;;;;
2007-08-30T00:11:46.055Z;0;1.0710e+01;0;     0.156;   729.848;  29394.561; 0;  29385.498;  29394.561;  29752.688;  29022.840; 49;   8.285;  96.144;  76.912;  61.770;  66.736;  71.461;   8.257;  -0.251;  -0.514;   8.285;   8.277;   4.615;  -6.880;  -0.036;;;;;;;;;;;;;;;;;;
2007-08-30T00:12:02.055Z;0;1.0140e+01;0;     0.158;   707.196;  28602.301; 0;  28593.557;  28602.301;  28949.342;  28242.145; 49;   8.287;  96.276;  77.042;  61.903;  66.865;  71.593;   8.258;  -0.251;  -0.514;   8.287;   8.278;   4.618;  -6.881;  -0.036;;;;;;;;;;;;;;;;;;
2007-08-30T00:12:18.055Z;0;1.0530e+01;0;     0.165;   707.196;  29149.436; 0;  29140.855;  29149.436;  29496.600;  28789.402; 49;   8.288;  96.409;  77.172;  62.037;  66.994;  71.726;   8.259;  -0.250;  -0.513;   8.289;   8.280;   4.621;  -6.881;  -0.036;;;;;;;;;;;;;;;;;;
2007-08-30T00:12:34.055Z;0;1.0190e+01;0;     0.172;   707.196;  28677.420; 0;  28668.699;  28677.420;  29024.477;  28317.281; 49;   8.290;  96.542;  77.303;  62.171;  67.123;  71.858;   8.260;  -0.250;  -0.513;   8.290;   8.282;   4.624;  -6.881;  -0.036;;;;;;;;;;;;;;;;;;
2007-08-30T00:13:38.054Z;0;9.2200e+00;0;     0.186;   730.016;  27276.504; 0;  27266.732;  27276.504;  27634.184;  26904.168; 49;   8.297;  97.072;  77.824;  62.706;  67.640;  72.388;   8.265;  -0.250;  -0.513;   8.297;   8.289;   4.636;  -6.881;  -0.036;;;;;;;;;;;;;;;;;;
2007-08-30T00:13:54.054Z;0;9.8760e+00;0;     0.158;   730.016;  28229.873; 0;  28220.432;  28229.873;  28587.801;  27857.785; 49;   8.299;  97.205;  77.954;  62.840;  67.769;  72.520;   8.266;  -0.250;  -0.513;   8.299;   8.291;   4.639;  -6.881;  -0.036;;;;;;;;;;;;;;;;;;
2007-08-30T00:14:26.054Z;0;9.1120e+00;0;     0.180;   714.616;  27116.463; 0;  27107.045;  27116.463;  27466.707;  26752.092; 49;   8.303;  97.470;  78.214;  63.108;  68.027;  72.784;   8.268;  -0.250;  -0.513;   8.303;   8.294;   4.646;  -6.881;  -0.036;;;;;;;;;;;;;;;;;;
2007-08-30T00:14:58.054Z;0;9.6010e+00;0;     0.168;   714.616;  27834.119; 0;  27824.943;  27834.119;  28184.547;  27469.930; 49;   8.306;  97.736;  78.475;  63.376;  68.286;  73.048;   8.271;  -0.250;  -0.512;   8.306;   8.298;   4.652;  -6.881;  -0.036;;;;;;;;;;;;;;;;;;
2007-08-30T00:15:14.054Z;0;9.0640e+00;0;     0.172;   712.096;  27044.574; 0;  27035.197;  27044.574;  27393.590;  26681.494; 49;   8.308;  97.868;  78.605;  63.510;  68.415;  73.180;   8.272;  -0.250;  -0.512;   8.308;   8.300;   4.655;  -6.881;  -0.036;;;;;;;;;;;;;;;;;;
2007-08-30T00:15:30.054Z;0;8.7900e+00;0;     0.186;   712.096;  26633.121; 0;  26623.600;  26633.121;  26982.029;  26269.932; 49;   8.310;  98.001;  78.736;  63.643;  68.544;  73.312;   8.273;  -0.250;  -0.512;   8.310;   8.301;   4.658;  -6.881;  -0.036;;;;;;;;;;;;;;;;;;
2007-08-30T00:15:46.053Z;0;1.0570e+01;0;     0.166;   712.096;  29205.898; 0;  29197.217;  29205.898;  29555.436;  28843.340; 49;   8.311;  98.134;  78.866;  63.777;  68.673;  73.443;   8.274;  -0.250;  -0.512;   8.312;   8.303;   4.661;  -6.881;  -0.036;;;;;;;;;;;;;;;;;;
2007-08-30T00:16:02.053Z;0;9.8320e+00;0;     0.162;   720.272;  28166.805; 0;  28157.594;  28166.805;  28520.033;  27799.762; 49;   8.313;  98.266;  78.996;  63.911;  68.803;  73.575;   8.275;  -0.250;  -0.512;   8.313;   8.305;   4.664;  -6.881;  -0.036;;;;;;;;;;;;;;;;;;
2007-08-30T00:16:18.053Z;0;9.1260e+00;0;     0.160;   720.272;  27137.432; 0;  27127.871;  27137.432;  27490.398;  26770.125; 49;   8.315;  98.399;  79.127;  64.045;  68.932;  73.707;   8.276;  -0.250;  -0.512;   8.315;   8.307;   4.667;  -6.881;  -0.036;;;;;;;;;;;;;;;;;;
2007-08-30T00:16:34.053Z;0;9.1710e+00;0;     0.177;   720.272;  27204.355; 0;  27194.818;  27204.355;  27557.340;  26837.066; 49;   8.317;  98.532;  79.257;  64.179;  69.061;  73.838;   8.277;  -0.250;  -0.512;   8.317;   8.308;   4.670;  -6.881;  -0.036;;;;;;;;;;;;;;;;;;
2007-08-30T00:16:50.053Z;0;9.1060e+00;0;     0.198;   720.272;  27107.096; 0;  27097.525;  27107.096;  27460.055;  26739.781; 49;   8.318;  98.665;  79.387;  64.313;  69.190;  73.970;   8.279;  -0.250;  -0.512;   8.319;   8.310;   4.673;  -6.881;  -0.036;;;;;;;;;;;;;;;;;;
2007-08-30T00:17:06.053Z;0;9.0320e+00;0;     0.190;   705.180;  26996.340; 0;  26987.129;  26996.340;  27342.021;  26636.842; 49;   8.320;  98.797;  79.518;  64.447;  69.320;  74.101;   8.280;  -0.250;  -0.511;   8.320;   8.312;   4.676;  -6.881;  -0.036;;;;;;;;;;;;;;;;;;
2007-08-30T00:17:22.053Z;0;9.6100e+00;0;     0.179;   705.180;  27847.318; 0;  27838.389;  27847.318;  28193.211;  27488.031; 49;   8.322;  98.930;  79.648;  64.581;  69.449;  74.232;   8.281;  -0.249;  -0.511;   8.322;   8.314;   4.679;  -6.881;  -0.036;;;;;;;;;;;;;;;;;;
2007-08-30T00:17:38.053Z;0;1.0020e+01;0;     0.165;   705.180;  28436.506; 0;  28427.762;  28436.506;  28782.537;  28077.357; 49;   8.324;  99.063;  79.779;  64.715;  69.578;  74.364;   8.282;  -0.249;  -0.511;   8.324;   8.315;   4.682;  -6.881;  -0.036;;;;;;;;;;;;;;;;;;
2007-08-30T00:17:54.053Z;0;9.9660e+00;0;     0.165;   705.180;  28357.980; 0;  28349.211;  28357.980;  28703.994;  27998.814; 49;   8.325;  99.196;  79.909;  64.849;  69.708;  74.495;   8.283;  -0.249;  -0.511;   8.326;   8.317;   4.686;  -6.881;  -0.036;;;;;;;;;;;;;;;;;;
2007-08-30T00:18:10.053Z;0;9.6950e+00;0;     0.188;   704.760;  27969.734; 0;  27960.854;  27969.734;  28315.455;  27610.693; 49;   8.327;  99.329;  80.039;  64.983;  69.837;  74.626;   8.284;  -0.249;  -0.511;   8.327;   8.319;   4.689;  -6.881;  -0.036;;;;;;;;;;;;;;;;;;
2007-08-30T00:18:26.052Z;0;9.0710e+00;0;     0.229;   704.760;  27054.750; 0;  27045.568;  27054.750;  27400.244;  26695.484; 49;   8.329;  99.461;  80.170;  65.117;  69.966;  74.757;   8.286;  -0.249;  -0.511;   8.329;   8.321;   4.692;  -6.882;  -0.036;;;;;;;;;;;;;;;;;;
2007-08-30T00:18:42.052Z;0;9.0240e+00;0;     0.181;   704.760;  26984.861; 0;  26975.656;  26984.861;  27330.338;  26625.578; 49;   8.331;  99.594;  80.300;  65.251;  70.095;  74.888;   8.287;  -0.249;  -0.511;   8.331;   8.322;   4.695;  -6.882;  -0.036;;;;;;;;;;;;;;;;;;
2007-08-30T00:18:58.052Z;0;8.8090e+00;0;     0.174;   704.760;  26661.230; 0;  26651.914;  26661.230;  27006.623;  26301.863; 49;   8.332;  99.727;  80.430;  65.385;  70.225;  75.019;   8.288;  -0.249;  -0.511;   8.333;   8.324;   4.698;  -6.882;  -0.036;;;;;;;;;;;;;;;;;;
2007-08-30T00:19:14.052Z;0;9.1740e+00;0;     0.182;   713.804;  27207.818; 0;  27198.453;  27207.818;  27557.697;  26843.893; 49;   8.334;  99.860;  80.561;  65.519;  70.354;  75.150;   8.289;  -0.249;  -0.511;   8.334;   8.326;   4.701;  -6.882;  -0.036;;;;;;;;;;;;;;;;;;
2007-08-30T00:19:30.052Z;0;9.1070e+00;0;     0.173;   713.804;  27109.168; 0;  27099.770;  27109.168;  27459.021;  26745.217; 49;   8.336;  99.993;  80.691;  65.653;  70.483;  75.281;   8.290;  -0.249;  -0.511;   8.336;   8.328;   4.704;  -6.882;  -0.036;;;;;;;;;;;;;;;;;;
2007-08-30T00:19:46.052Z;0;9.0690e+00;0;     0.186;   713.804;  27051.854; 0;  27042.434;  27051.854;  27401.691;  26687.887; 49;   8.338; 100.125;  80.822;  65.787;  70.613;  75.412;   8.291;  -0.249;  -0.510;   8.338;   8.329;   4.707;  -6.882;  -0.036;;;;;;;;;;;;;;;;;;
2007-08-30T00:20:02.052Z;0;8.9240e+00;0;     0.189;   697.592;  26834.422; 0;  26825.354;  26834.422;  27176.416;  26478.824; 49;   8.340; 100.258;  80.952;  65.921;  70.742;  75.543;   8.293;  -0.249;  -0.510;   8.340;   8.331;   4.710;  -6.882;  -0.036;;;;;;;;;;;;;;;;;;
2007-08-30T00:20:18.052Z;0;8.9150e+00;0;     0.185;   697.592;  26821.014; 0;  26811.939;  26821.014;  27163.006;  26465.412; 49;   8.341; 100.391;  81.083;  66.055;  70.873;  75.676;   8.294;  -0.249;  -0.510;   8.341;   8.333;   4.713;  -6.882;  -0.036;;;;;;;;;;;;;;;;;;
2007-08-30T00:20:34.052Z;0;9.0210e+00;0;     0.195;   697.592;  26980.986; 0;  26971.967;  26980.986;  27323.018;  26625.426; 49;   8.343; 100.524;  81.213;  66.189;  71.004;  75.810;   8.295;  -0.249;  -0.510;   8.343;   8.335;   4.716;  -6.882;  -0.036;;;;;;;;;;;;;;;;;;
2007-08-30T00:20:50.052Z;0;9.1320e+00;0;     0.176;   697.592;  27145.338; 0;  27136.373;  27145.338;  27487.410;  26789.818; 49;   8.345; 100.657;  81.344;  66.323;  71.135;  75.943;   8.296;  -0.249;  -0.510;   8.345;   8.336;   4.719;  -6.882;  -0.036;;;;;;;;;;;;;;;;;;
2007-08-30T00:21:06.051Z;0;9.0980e+00;0;     0.162;   706.664;  27095.020; 0;  27085.803;  27095.020;  27441.439;  26734.775; 49;   8.347; 100.790;  81.474;  66.457;  71.266;  76.077;   8.297;  -0.249;  -0.510;   8.347;   8.338;   4.722;  -6.882;  -0.036;;;;;;;;;;;;;;;;;;
2007-08-30T00:21:22.051Z;0;8.7940e+00;0;     0.178;   706.664;  26639.412; 0;  26630.037;  26639.412;  26985.713;  26279.049; 49;   8.348; 100.922;  81.605;  66.591;  71.397;  76.211;   8.298;  -0.249;  -0.510;   8.349;   8.340;   4.725;  -6.882;  -0.036;;;;;;;;;;;;;;;;;;
2007-08-30T00:21:38.051Z;0;8.9360e+00;0;     0.182;   706.664;  26852.631; 0;  26843.330;  26852.631;  27198.988;  26492.324; 49;   8.350; 101.055;  81.735;  66.725;  71.528;  76.344;   8.299;  -0.249;  -0.510;   8.350;   8.342;   4.729;  -6.882;  -0.036;;;;;;;;;;;;;;;;;;
2007-08-30T00:21:54.051Z;0;8.7960e+00;0;     0.188;   706.664;  26641.924; 0;  26632.551;  26641.924;  26988.227;  26281.562; 49;   8.352; 101.188;  81.866;  66.859;  71.659;  76.478;   8.301;  -0.249;  -0.510;   8.352;   8.344;   4.732;  -6.882;  -0.036;;;;;;;;;;;;;;;;;;
2007-08-30T00:22:10.051Z;0;8.0850e+00;0;     0.196;   688.212;  25542.352; 0;  25533.078;  25542.352;  25879.504;  25191.291; 49;   8.354; 101.321;  81.996;  66.993;  71.790;  76.612;   8.302;  -0.249;  -0.509;   8.354;   8.345;   4.735;  -6.882;  -0.036;;;;;;;;;;;;;;;;;;
2007-08-30T00:22:42.051Z;0;8.9920e+00;0;     0.176;   688.212;  26936.240; 0;  26927.447;  26936.240;  27273.752;  26585.539; 49;   8.357; 101.587;  82.257;  67.261;  72.053;  76.880;   8.304;  -0.248;  -0.509;   8.357;   8.349;   4.741;  -6.882;  -0.036;;;;;;;;;;;;;;;;;;